sat.trackr.live / text

‹ back to catalog

STARLINK-5497

NORAD 55629 · 2023-021B

PAYLOAD ACTIVE UNKNOWN

§ Identity

Operator
Country
US
Launch date
2023-02-17
Launch site
AFWTR
Launch vehicle
Mass (kg)
RCS (m²)

Purposes: comms

External: N2YO · Heavens-Above · Gunter

§ Orbital elements

Epoch: 2026-05-25T01:13:14.628864Z

Period
96.11 min
Inclination
69.9999°
Eccentricity
0.0002743
Mean motion
14.98331282 rev/d
Perigee alt
570.1 km
Apogee alt
574.0 km
Semi-major
6,950.2 km
B*
6.6529e-5
RAAN
12.0360°
Arg perigee
269.3250°
Mean anomaly
90.7595°
Rev number
17,973

§ Raw data

STARLINK-54971 55629U 23021B   26145.05086376  .00000701  00000+0  66529-4 0  99972 55629  69.9999  12.0360 0002743 269.3250  90.7595 14.98331282179738

JSON: /api/v1/satellites/55629 · /tle

For live sub-satellite position, see the globe view (requires WebGL).

§ Visibility from observer

Set your observer location to see the next 7 days of passes ≥ 10°. The values pass through the URL so the page stays shareable.

No JS? Fill the form by hand. The geolocation button needs JavaScript.